Temp
80 80 80 73 62 61 60 63 75 74 74 81 83 78 73 71 68 57 70 75 78 79 80 82 82 83 83 82 83 83 83 83 83 83 83 83 83 83 83 84 84 84 84 84 84 84 84 83 83
81 82 77 69 59 55 58 70 71 76 80 81 81 77 76 66 71 67 69 78 81 80 79 80 82 83 83 83 83 83 83 83 83 83 83 83 84 84 84 84 84 84 84 84 84 84 84 83 83
84 86 69 64 60 57 59 75 75 80 84 83 80 80 77 67 70 71 78 79 83 81 80 80 82 83 83 83 83 83 83 84 83 83 84 84 84 84 84 84 84 84 84 84 84 84 84 84 83
80 78 71 60 60 68 69 78 82 82 85 85 80 70 74 77 74 78 81 83 83 79 80 82 83 83 83 83 83 83 84 83 83 83 84 84 84 84 84 84 84 84 84 84 84 84 84 84 84
82 72 61 60 63 70 78 81 82 78 81 78 78 67 66 75 82 80 82 85 81 78 80 81 83 83 83 83 83 84 84 84 83 84 84 84 84 84 84 84 84 84 84 84 84 84 84 84 84
68 68 58 57 63 72 77 84 84 82 79 75 71 69 70 79 77 80 84 83 82 79 80 81 83 83 83 84 84 84 84 84 83 84 84 84 84 84 84 85 85 85 85 84 84 84 84 84 83
69 61 56 60 63 71 70 86 81 81 78 75 79 69 71 72 79 81 83 84 83 82 80 79 80 83 84 84 84 84 84 84 84 84 84 84 84 84 84 85 85 85 85 85 84 84 84 83 83
76 69 62 66 69 73 81 85 85 83 78 85 82 68 64 74 81 84 82 82 82 81 80 79 78 78 77 79 84 84 84 84 84 84 84 84 84 85 85 84 84 86 86 85 85 84 84 84 83
86 62 58 67 70 73 82 82 87 90 81 82 80 77 78 81 84 81 81 81 80 80 80 80 79 77 77 78 82 83 84 84 84 83 84 79 75 76 82 82 84 86 86 85 85 84 84 84 83
76 64 66 79 78 75 82 81 82 82 79 74 75 80 82 82 81 80 78 78 76 78 80 81 80 79 79 84 77 77 80 78 78 77 74 72 73 75 80 83 85 86 86 85 85 84 85 84 78
78 70 77 80 84 83 78 78 85 82 72 75 71 76 81 80 81 79 79 78 79 81 82 82 82 81 81 80 77 77 77 77 77 74 72 71 74 74 71 74 76 77 83 79 83 82 78 79 78
75 83 84 82 84 76 75 77 80 82 78 81 79 80 81 80 80 80 80 79 80 82 83 83 82 82 80 80 78 80 79 78 78 74 73 71 73 73 72 73 73 74 77 77 76 75 78 77 80
79 83 89 86 86 78 77 78 80 83 82 82 82 81 79 79 81 83 82 83 82 81 84 84 83 80 80 80 80 79 81 82 82 77 74 74 73 72 73 72 72 73 78 80 76 78 80 78 80
84 86 88 84 84 80 74 80 79 82 83 80 80 78 79 80 81 82 82 82 82 84 86 84 84 81 84 83 78 82 82 81 86 83 80 80 75 74 74 73 74 76 74 79 78 77 78 78 79
86 80 86 83 82 75 78 73 74 74 84 79 79 79 79 80 82 81 82 82 83 85 86 83 83 81 80 80 80 81 80 82 81 82 81 81 80 76 75 75 75 78 78 79 78 78 77 76 78
78 78 72 83 80 84 76 66 71 77 81 79 80 80 80 80 81 83 84 84 85 84 84 84 88 82 79 79 79 79 80 79 80 82 80 82 80 80 75 73 74 74 76 78 79 76 75 75 75
72 66 69 77 87 87 75 69 74 80 77 75 78 81 82 80 82 83 85 86 86 86 83 84 84 82 79 78 78 78 79 79 80 79 79 80 81 81 77 73 76 76 76 79 79 76 74 75 76
63 64 70 72 84 86 77 72 76 77 75 72 73 79 82 81 82 85 86 87 88 85 84 85 82 81 80 78 77 77 77 78 79 79 79 80 80 81 77 76 74 75 77 76 75 76 75 75 75
74 72 71 78 84 84 79 72 73 71 71 69 68 67 80 84 85 86 87 88 88 85 84 83 79 80 80 78 77 74 75 76 77 79 79 80 80 81 77 75 75 76 76 75 77 76 74 74 73
74 71 71 78 85 82 79 73 72 72 72 71 68 66 69 84 85 87 87 89 87 83 84 79 80 79 80 80 80 75 75 76 77 78 79 80 80 80 80 76 75 76 75 76 76 75 72 73 73
72 70 71 72 81 83 78 71 70 75 73 69 69 67 70 78 85 85 87 86 86 83 82 81 80 79 80 80 79 76 76 75 75 76 77 79 80 80 80 78 76 75 75 74 75 75 74 71 72
65 78 78 77 73 65 79 59 65 69 68 68 71 72 75 76 86 86 87 86 85 83 83 83 80 79 80 79 80 79 79 76 74 76 77 78 80 80 80 79 77 77 75 75 76 77 74 73 70
71 80 77 77 71 65 71 67 68 71 66 67 69 75 77 80 86 87 87 87 87 86 83 82 81 80 81 81 81 78 75 73 75 75 76 76 78 79 81 79 78 78 76 76 76 76 74 74 72
82 76 74 74 69 58 67 64 67 68 70 69 74 75 77 80 88 89 89 89 87 86 84 82 80 80 81 80 77 78 75 74 73 73 74 75 77 80 80 81 78 77 77 76 76 76 76 74 74
76 68 56 54 56 55 64 61 64 78 82 76 77 78 80 86 89 88 87 87 86 85 84 82 80 78 79 80 80 75 76 75 75 75 76 74 76 80 79 78 78 79 77 77 77 77 76 74 73
71 69 53 44 49 55 65 60 67 81 86 92 90 89 89 90 90 89 88 87 87 87 84 82 79 79 80 79 79 80 77 80 80 76 76 79 79 81 82 81 79 80 79 77 77 76 76 75 74
69 65 71 55 56 52 59 67 76 84 83 86 91 92 89 90 90 89 89 89 88 87 84 83 79 79 80 80 79 79 80 77 80 80 76 77 78 81 81 82 79 79 79 77 76 76 76 75 75
74 75 61 63 48 48 58 63 65 73 79 80 83 90 91 91 91 91 90 89 88 89 87 85 81 80 80 80 80 80 80 80 78 80 78 78 78 79 79 82 81 80 80 80 76 76 76 75 74
70 67 68 60 57 49 48 60 79 78 80 81 84 85 93 91 91 91 90 91 89 90 88 85 82 80 80 80 80 80 80 80 81 77 79 79 77 79 78 78 80 80 79 78 77 75 76 75 75
77 71 70 61 53 56 55 62 79 78 86 86 86 86 89 93 93 93 92 91 89 88 88 86 84 82 82 82 81 80 81 80 79 80 78 80 81 77 80 79 80 80 80 79 78 77 79 75 74
MSLP
1010.23 1010.58 1010.74 1011.01 1011.46 1010.37 1009.03 1008.21 1006.13 1005.36 1005.18 1005.32 1006.20 1007.02 1008.47 1009.78 1011.00 1012.80 1013.30 1013.68 1013.99 1014.58 1014.86 1015.06 1015.29 1015.59 1015.98 1016.26 1016.52 1016.66 1016.74 1016.93 1016.90 1016.96 1017.12 1017.25 1017.33 1017.37 1017.46 1017.63 1017.77 1017.90 1017.95 1018.05 1018.16 1018.30 1018.39 1018.30 1018.26
1010.00 1010.34 1010.58 1010.57 1010.54 1009.40 1008.34 1006.77 1005.57 1004.75 1004.75 1005.36 1006.21 1007.18 1008.17 1010.36 1011.34 1012.58 1013.10 1013.49 1013.66 1014.34 1014.83 1015.19 1015.44 1015.82 1016.18 1016.44 1016.72 1016.81 1017.03 1017.14 1017.15 1017.28 1017.44 1017.48 1017.53 1017.55 1017.61 1017.78 1017.93 1018.00 1018.08 1018.15 1018.31 1018.43 1018.51 1018.43 1018.39
1009.58 1009.64 1010.16 1009.92 1009.62 1008.39 1007.14 1005.61 1004.70 1004.50 1004.58 1005.25 1006.13 1007.45 1008.56 1010.74 1011.84 1012.52 1012.56 1012.92 1013.35 1014.24 1014.93 1015.29 1015.63 1015.99 1016.30 1016.65 1016.88 1017.04 1017.21 1017.32 1017.43 1017.55 1017.67 1017.75 1017.82 1017.82 1017.92 1018.01 1018.14 1018.25 1018.35 1018.44 1018.51 1018.60 1018.66 1018.56 1018.48
1009.44 1009.61 1009.92 1009.42 1008.60 1006.79 1006.06 1004.68 1003.84 1003.93 1004.52 1005.32 1006.37 1008.38 1010.03 1010.56 1011.61 1012.08 1012.48 1012.78 1013.32 1014.39 1015.02 1015.45 1015.78 1016.13 1016.46 1016.81 1017.00 1017.21 1017.33 1017.44 1017.55 1017.69 1017.83 1017.92 1018.01 1018.05 1018.08 1018.29 1018.36 1018.45 1018.56 1018.62 1018.62 1018.62 1018.71 1018.71 1018.54
1009.26 1009.70 1010.00 1009.58 1008.21 1006.46 1005.01 1004.44 1004.12 1004.09 1004.76 1006.06 1006.68 1009.54 1011.00 1011.92 1011.80 1012.40 1012.57 1012.72 1013.54 1014.44 1015.12 1015.63 1015.92 1016.24 1016.62 1016.85 1017.14 1017.32 1017.50 1017.68 1017.81 1017.91 1017.97 1018.06 1018.09 1018.22 1018.36 1018.48 1018.53 1018.60 1018.66 1018.72 1018.72 1018.71 1018.75 1018.84 1018.74
1009.67 1010.51 1010.48 1010.13 1008.24 1006.12 1004.52 1003.45 1003.50 1004.00 1005.06 1006.60 1008.24 1009.55 1011.15 1011.66 1012.21 1012.52 1012.63 1012.81 1013.54 1014.38 1015.17 1015.72 1016.06 1016.39 1016.68 1016.93 1017.32 1017.50 1017.72 1017.79 1018.05 1018.18 1018.25 1018.39 1018.42 1018.41 1018.54 1018.68 1018.72 1018.80 1018.86 1018.88 1018.86 1018.82 1018.83 1018.99 1018.97
1008.96 1010.02 1010.27 1009.13 1007.65 1006.03 1003.96 1002.66 1003.18 1004.19 1005.19 1006.48 1007.40 1009.28 1011.44 1012.16 1012.44 1012.50 1012.67 1013.11 1013.68 1014.27 1015.20 1015.81 1016.22 1016.57 1016.83 1017.13 1017.44 1017.65 1017.81 1018.00 1018.18 1018.30 1018.37 1018.52 1018.59 1018.69 1018.70 1018.83 1018.86 1018.91 1018.96 1019.02 1018.98 1018.94 1018.97 1019.03 1019.01
1008.00 1008.76 1009.32 1007.29 1005.84 1004.68 1003.24 1002.68 1003.22 1003.94 1005.03 1006.30 1007.29 1009.09 1010.82 1011.52 1012.15 1012.35 1012.82 1013.25 1013.73 1014.50 1015.14 1015.84 1016.31 1016.76 1017.05 1017.28 1017.47 1017.68 1017.90 1018.19 1018.26 1018.20 1018.41 1018.49 1018.68 1018.78 1018.86 1018.96 1019.04 1019.07 1019.06 1019.02 1018.95 1018.89 1018.98 1019.10 1019.04
1006.53 1008.23 1007.80 1006.70 1005.72 1004.89 1004.40 1002.26 1003.12 1003.58 1004.84 1005.86 1007.14 1008.03 1010.00 1010.95 1011.66 1012.29 1012.59 1013.18 1013.82 1014.56 1015.15 1015.73 1016.30 1016.80 1017.10 1017.31 1017.49 1017.66 1018.08 1018.19 1018.14 1018.37 1018.51 1018.96 1019.16 1019.28 1019.01 1019.03 1019.03 1018.99 1019.06 1019.23 1019.06 1018.90 1018.98 1019.17 1019.13
1005.71 1006.40 1006.13 1004.77 1004.55 1004.79 1004.17 1003.81 1003.74 1004.02 1005.56 1006.78 1008.15 1009.48 1010.47 1011.14 1011.50 1011.91 1012.32 1012.86 1013.70 1014.32 1014.94 1015.60 1016.03 1016.56 1016.94 1017.04 1017.52 1017.80 1017.99 1018.08 1018.14 1018.64 1019.04 1019.35 1019.42 1019.20 1019.15 1018.96 1019.09 1019.10 1019.14 1019.36 1019.10 1018.92 1019.04 1019.04 1019.15
1004.42 1004.32 1004.42 1003.93 1003.45 1004.00 1003.49 1004.08 1003.72 1004.26 1005.40 1006.27 1007.70 1009.18 1010.06 1011.02 1011.52 1011.91 1012.33 1012.89 1013.23 1013.85 1014.54 1015.20 1015.61 1016.08 1016.53 1016.80 1017.36 1017.57 1017.76 1017.86 1018.20 1018.38 1018.44 1018.58 1018.97 1019.16 1019.56 1019.35 1019.15 1019.23 1019.26 1019.17 1019.20 1018.66 1019.04 1019.07 1019.13
1003.36 1002.83 1002.97 1002.92 1002.89 1003.80 1003.93 1003.51 1003.85 1004.31 1004.90 1006.14 1007.27 1008.75 1009.62 1010.50 1011.11 1011.48 1012.03 1012.64 1013.06 1013.60 1014.01 1014.65 1015.00 1015.52 1016.18 1016.60 1016.90 1017.02 1017.35 1017.49 1017.89 1018.18 1018.00 1018.55 1018.75 1019.20 1019.36 1019.36 1019.14 1019.31 1019.54 1019.42 1019.39 1019.03 1018.82 1019.02 1018.98
1002.12 1001.50 1001.34 1001.54 1002.06 1003.05 1003.79 1003.09 1003.08 1003.33 1005.02 1006.41 1007.54 1008.94 1009.86 1010.42 1010.86 1011.21 1011.63 1012.18 1012.72 1013.18 1013.54 1014.17 1014.62 1015.26 1015.76 1016.20 1016.39 1016.73 1016.78 1017.05 1017.40 1017.92 1018.38 1018.51 1019.08 1019.40 1019.36 1019.05 1019.23 1019.36 1019.03 1019.12 1019.40 1018.94 1018.57 1018.93 1018.75
1001.17 1000.58 1000.38 1000.77 1002.31 1003.80 1004.87 1003.78 1004.05 1004.76 1005.40 1006.70 1007.55 1008.57 1009.56 1010.28 1010.51 1010.90 1011.32 1011.72 1012.28 1012.61 1013.02 1013.77 1014.27 1014.73 1015.24 1015.78 1016.25 1016.29 1016.30 1016.50 1016.82 1017.35 1017.77 1018.04 1018.57 1019.22 1019.35 1019.00 1018.87 1019.14 1019.07 1018.73 1019.02 1018.73 1018.50 1018.45 1018.60
1000.66 1000.49 999.79 1000.28 1001.33 1003.53 1004.10 1005.90 1004.56 1006.24 1005.45 1007.04 1007.96 1008.94 1009.49 1009.94 1010.30 1010.53 1010.82 1011.13 1011.45 1011.95 1012.35 1013.30 1013.92 1014.22 1014.84 1015.48 1015.66 1015.74 1016.01 1016.22 1016.71 1017.05 1017.44 1017.62 1017.83 1018.50 1018.91 1018.82 1018.91 1018.65 1018.82 1018.77 1018.77 1018.62 1018.72 1018.97 1018.74
1000.57 1000.29 999.98 999.21 1000.91 1001.01 1002.44 1004.67 1005.28 1005.74 1006.66 1006.92 1007.57 1008.78 1009.23 1009.54 1009.70 1009.92 1010.31 1010.68 1011.01 1011.43 1012.00 1012.93 1013.50 1014.09 1014.54 1015.08 1015.53 1015.82 1015.94 1016.24 1016.44 1016.85 1017.24 1017.40 1017.69 1018.00 1018.48 1018.78 1018.86 1019.19 1018.66 1018.74 1018.66 1018.97 1019.00 1019.19 1019.15
1000.20 1000.01 999.49 998.86 998.44 999.32 1001.69 1003.17 1004.94 1005.54 1005.72 1007.63 1008.20 1008.23 1008.54 1008.96 1009.28 1009.50 1009.59 1009.99 1010.46 1010.92 1011.62 1012.51 1013.20 1013.80 1014.38 1014.90 1015.26 1015.76 1016.00 1016.28 1016.50 1016.82 1017.07 1017.19 1017.54 1017.75 1018.17 1018.66 1018.52 1018.66 1018.49 1018.49 1018.58 1018.92 1018.97 1019.20 1019.16
1000.02 999.70 999.08 998.20 997.72 998.30 999.88 1001.86 1003.74 1004.74 1005.13 1005.69 1008.74 1008.81 1007.73 1008.10 1008.17 1008.52 1008.88 1009.28 1009.88 1010.36 1011.01 1011.76 1012.81 1013.44 1014.12 1014.70 1015.26 1015.84 1016.16 1016.28 1016.29 1016.42 1016.80 1017.05 1017.32 1017.54 1018.00 1018.34 1018.58 1018.58 1018.55 1018.77 1018.79 1018.91 1019.06 1019.12 1019.17
999.71 999.31 998.59 997.74 997.10 997.76 998.76 1001.44 1003.38 1004.50 1005.41 1006.06 1008.25 1009.36 1007.88 1007.20 1007.33 1007.68 1008.05 1008.66 1009.35 1009.91 1010.61 1011.28 1012.24 1013.09 1013.88 1014.56 1015.22 1015.92 1016.24 1016.28 1016.19 1016.18 1016.47 1016.66 1017.00 1017.26 1017.63 1018.01 1018.44 1018.36 1018.54 1018.67 1018.76 1018.91 1019.16 1019.26 1019.30
999.07 998.62 998.00 997.29 996.68 997.27 998.52 1000.28 1002.80 1004.03 1004.44 1006.44 1007.70 1008.66 1008.66 1006.70 1006.41 1006.62 1006.98 1007.62 1008.32 1009.17 1009.89 1010.76 1011.61 1012.56 1013.32 1013.97 1014.63 1015.30 1015.68 1015.87 1015.84 1015.82 1016.18 1016.36 1016.62 1016.90 1017.21 1017.77 1018.30 1018.22 1018.34 1018.59 1018.68 1018.74 1019.08 1019.16 1019.14
998.10 997.86 997.49 997.21 996.58 996.80 997.64 1000.27 1002.36 1004.12 1005.72 1006.68 1007.04 1008.15 1007.35 1006.92 1005.59 1005.78 1005.98 1006.73 1007.62 1008.55 1009.28 1010.12 1010.94 1011.91 1012.74 1013.46 1014.28 1014.90 1015.42 1015.64 1015.78 1015.84 1015.94 1016.17 1016.20 1016.40 1016.78 1017.24 1017.63 1017.83 1018.23 1018.40 1018.55 1018.72 1018.92 1019.28 1019.36
997.21 997.22 997.22 996.82 997.04 997.12 996.85 999.20 1001.18 1002.23 1004.17 1004.51 1004.79 1004.40 1004.48 1004.86 1004.62 1004.87 1005.37 1006.06 1006.88 1007.76 1008.74 1009.56 1010.39 1011.26 1012.13 1012.86 1013.64 1014.25 1014.67 1015.12 1015.32 1015.42 1015.58 1015.72 1015.77 1016.01 1016.37 1016.80 1017.17 1017.44 1017.76 1018.14 1018.17 1018.46 1018.72 1018.99 1019.40
996.54 997.08 996.95 996.89 997.24 997.54 997.34 997.69 998.97 1000.33 1001.94 1002.56 1002.72 1001.67 1002.87 1002.86 1003.14 1003.36 1004.16 1004.86 1005.91 1007.12 1008.11 1008.96 1009.78 1010.70 1011.51 1012.20 1012.73 1013.49 1014.18 1014.60 1014.77 1015.04 1015.25 1015.39 1015.50 1015.58 1015.92 1016.40 1016.81 1017.26 1017.46 1017.75 1018.00 1018.28 1018.56 1018.70 1019.10
996.27 996.79 997.05 997.05 997.53 997.45 997.05 997.38 997.41 998.29 998.75 999.59 1000.28 1000.58 1000.95 1001.41 1001.64 1002.32 1003.22 1004.22 1005.26 1006.51 1007.54 1008.61 1009.35 1010.13 1010.80 1011.54 1012.16 1012.70 1013.44 1014.05 1014.58 1014.86 1015.14 1015.19 1015.29 1015.52 1015.62 1015.97 1016.34 1016.66 1017.03 1017.47 1017.72 1017.92 1018.27 1018.43 1018.74
995.42 996.39 997.35 997.64 997.20 996.85 996.70 996.54 995.84 994.80 995.50 996.58 997.52 998.55 999.26 999.52 1000.01 1001.16 1002.26 1003.28 1004.28 1005.45 1006.66 1007.81 1008.80 1009.64 1010.30 1010.92 1011.49 1012.24 1012.82 1013.41 1013.86 1014.22 1014.49 1014.83 1014.93 1015.06 1015.35 1015.68 1016.05 1016.30 1016.53 1016.90 1017.11 1017.69 1018.04 1018.21 1018.51
994.14 994.88 995.92 996.68 996.86 997.15 996.58 995.45 994.26 993.74 993.28 993.30 994.31 995.23 996.80 997.63 998.56 999.62 1000.74 1001.91 1002.94 1004.21 1005.56 1006.78 1007.91 1008.82 1009.48 1010.16 1010.81 1011.50 1012.24 1012.61 1012.95 1013.39 1013.68 1013.94 1014.14 1014.32 1014.72 1015.06 1015.27 1015.62 1016.02 1016.47 1016.72 1017.23 1017.60 1017.90 1018.16
993.20 993.94 995.16 996.24 996.64 996.90 996.36 995.00 993.84 992.93 992.41 992.80 992.79 993.70 994.96 996.02 997.14 998.14 999.58 1000.66 1001.84 1003.15 1004.31 1005.51 1006.90 1007.88 1008.57 1009.12 1009.92 1010.74 1011.44 1012.02 1012.22 1012.60 1013.01 1013.33 1013.49 1013.70 1014.10 1014.49 1014.96 1015.30 1015.51 1015.94 1016.49 1016.76 1017.15 1017.60 1017.87
991.36 993.35 994.55 995.30 996.77 996.78 996.06 994.76 992.92 992.47 991.82 991.72 992.28 992.53 993.21 994.32 995.59 996.92 998.42 999.62 1000.81 1001.74 1002.96 1004.43 1005.80 1006.83 1007.79 1008.65 1009.34 1010.01 1010.44 1011.04 1011.62 1012.10 1012.49 1012.74 1012.97 1013.24 1013.52 1013.96 1014.36 1014.77 1015.17 1015.56 1016.00 1016.39 1016.80 1017.30 1017.66
990.99 992.04 993.19 994.88 995.76 996.08 995.75 993.38 991.32 991.01 990.67 990.90 991.10 991.33 991.77 993.10 994.40 995.80 997.30 998.52 999.57 1000.80 1002.08 1003.38 1004.78 1006.11 1007.18 1008.00 1008.68 1009.22 1009.80 1010.46 1011.08 1011.67 1011.90 1012.21 1012.41 1012.68 1013.04 1013.31 1013.92 1014.30 1014.59 1015.17 1015.79 1016.14 1016.53 1017.00 1017.33
990.57 991.11 992.34 993.52 994.70 994.89 994.48 992.39 990.05 989.50 989.06 989.72 990.20 990.57 991.22 991.98 993.46 994.79 996.21 997.50 998.85 1000.10 1001.34 1002.47 1003.64 1004.83 1005.79 1006.77 1007.76 1008.55 1009.21 1009.84 1010.50 1010.90 1011.30 1011.57 1011.78 1011.97 1012.41 1012.94 1013.20 1013.57 1014.19 1014.81 1015.14 1015.52 1015.78 1016.31 1016.79
Wind_Speed
11 8 3 1 1 2 3 3 5 12 6 5 17 8 11 6 2 5 11 10 11 10 8 11 16 18 18 15 13 14 13 12 12 14 14 14 14 14 13 13 13 13 13 13 12 12 11 10 8
10 10 2 2 2 1 2 4 10 12 12 13 14 14 7 5 6 12 11 14 13 13 9 10 17 18 17 16 14 13 13 12 12 14 12 12 12 12 12 13 11 13 12 11 11 11 10 8 7
13 12 2 1 2 3 2 12 13 17 16 14 9 11 6 6 13 15 16 18 16 13 11 12 17 18 17 16 14 12 12 12 13 12 12 12 12 12 12 11 12 11 11 10 10 10 9 8 5
4 2 3 3 6 14 4 9 16 15 14 11 15 11 8 13 20 11 19 16 16 16 13 14 18 19 17 15 14 12 11 13 12 11 11 11 11 11 12 11 11 10 10 10 9 8 8 7 4
2 1 2 1 6 8 8 9 14 15 15 13 8 9 13 11 11 21 15 14 19 15 13 12 17 17 16 15 14 12 12 13 11 9 10 10 10 10 9 10 10 10 9 9 8 7 7 7 5
3 3 4 6 8 8 16 11 17 17 20 18 16 15 8 16 22 16 11 15 15 16 13 11 16 16 15 15 13 12 12 11 9 8 8 8 8 8 7 8 9 9 9 8 7 6 6 6 4
5 4 7 13 20 11 4 18 15 18 18 15 18 12 10 16 21 14 11 14 16 16 13 10 10 13 15 13 12 14 11 10 9 7 7 6 4 5 6 5 6 8 8 7 6 5 5 5 5
7 3 5 7 9 8 8 11 18 16 15 21 14 9 15 21 22 14 13 14 12 16 13 10 8 7 6 6 13 12 10 9 9 8 7 6 4 4 5 5 4 6 7 7 5 5 4 4 3
20 2 4 5 3 11 16 21 14 12 23 10 5 23 22 26 20 16 14 14 12 14 14 12 10 8 7 6 8 10 10 9 9 7 4 6 4 3 5 7 7 7 6 6 3 3 4 4 0
13 5 9 6 2 5 13 7 4 17 18 19 24 20 25 23 18 18 16 14 16 16 16 13 12 10 9 8 6 6 6 4 5 6 6 4 3 4 4 5 6 6 5 5 4 5 3 4 2
17 11 9 7 12 4 9 2 6 14 20 29 30 28 26 23 18 16 15 15 16 17 14 15 13 11 11 8 6 4 3 3 4 7 6 7 1 2 2 2 1 2 4 3 4 6 3 4 3
17 19 14 9 9 7 6 3 6 8 16 27 30 26 26 23 19 17 19 16 17 17 17 17 14 13 9 8 7 7 5 5 4 5 6 4 1 2 3 1 1 2 2 4 2 4 4 3 5
18 19 17 11 7 13 6 8 6 22 29 28 28 25 23 20 18 15 15 16 16 15 17 17 16 11 11 10 7 5 7 6 8 6 5 5 4 4 3 3 0 2 2 4 4 4 2 2 2
17 19 17 15 10 13 2 7 8 23 30 28 28 25 22 20 20 15 16 16 18 17 19 17 17 12 13 8 5 5 6 6 8 9 8 7 6 6 3 4 3 5 2 3 3 3 2 1 3
20 19 18 17 23 14 23 16 11 9 28 28 25 23 24 22 19 18 17 14 12 14 18 19 15 10 9 7 4 1 1 5 5 5 6 7 5 7 7 4 4 2 3 3 3 2 1 3 3
18 18 15 14 24 18 24 12 16 16 12 23 27 23 24 24 24 19 20 17 15 9 19 18 15 11 8 8 4 0 0 2 3 7 5 7 6 6 5 3 2 1 5 3 4 2 0 1 1
12 14 13 17 17 15 28 18 22 19 18 9 10 24 22 24 25 22 23 21 18 14 19 18 16 14 10 7 6 4 2 1 4 5 5 7 7 6 4 4 3 4 1 3 4 2 2 1 2
12 8 12 12 13 19 13 14 26 17 18 19 12 14 19 26 28 25 26 21 17 15 18 18 13 15 12 7 5 3 2 3 3 2 6 8 6 7 5 4 3 2 2 2 1 2 1 3 4
11 16 14 15 11 12 14 21 23 19 21 24 19 2 14 18 26 23 23 22 21 15 18 18 16 16 11 8 8 4 5 3 3 3 6 8 7 7 7 4 4 3 3 5 4 2 3 1 2
18 21 20 13 17 14 12 17 25 26 28 18 16 13 16 20 17 21 23 23 22 19 20 13 15 18 13 10 8 4 4 3 3 3 5 7 7 7 6 6 5 5 3 3 3 2 1 1 2
22 19 19 13 16 16 9 21 21 14 20 21 22 16 26 17 24 19 19 20 20 20 20 17 16 17 14 12 7 4 2 2 3 3 3 5 8 7 7 7 5 6 5 4 4 4 4 2 1
19 19 21 21 14 10 12 8 15 16 18 19 24 29 31 22 23 21 22 19 22 20 19 19 15 16 14 13 12 13 10 7 4 5 4 5 8 7 7 7 6 6 4 6 5 4 3 3 2
14 17 20 21 15 8 13 10 12 22 16 20 23 23 26 25 24 26 26 22 20 20 19 19 18 16 16 15 13 10 8 5 5 4 7 6 6 7 7 7 7 6 4 5 5 4 4 3 3
17 12 15 17 13 13 17 7 13 17 25 25 25 21 24 27 27 26 25 21 19 18 19 18 19 18 16 14 11 14 9 8 5 5 4 4 5 7 7 8 7 7 6 6 5 5 6 5 3
13 14 9 11 13 14 9 6 9 9 21 34 31 27 30 29 29 26 27 24 21 22 21 19 20 18 16 18 16 9 10 9 9 8 6 6 4 6 8 7 8 7 6 6 5 5 6 5 3
22 21 7 9 8 8 8 10 9 9 6 17 28 33 33 30 27 29 28 26 24 23 23 22 22 21 20 18 19 16 11 9 9 7 5 7 7 8 10 9 8 10 8 6 6 4 5 6 5
17 19 13 3 5 4 5 11 11 16 12 9 18 21 31 30 28 29 28 25 25 23 24 24 23 22 22 21 17 17 15 11 12 12 6 5 6 6 10 12 10 10 11 8 7 5 7 6 6
16 9 12 9 10 10 9 14 17 13 18 9 10 17 25 31 30 27 26 25 24 24 22 23 22 23 21 20 16 15 17 17 10 10 10 8 7 7 6 12 13 12 12 11 8 6 5 6 5
10 12 14 5 6 8 4 11 15 21 19 16 14 13 24 28 29 26 25 24 25 23 21 22 21 22 19 18 18 17 16 15 15 7 11 11 6 8 6 10 10 11 12 10 9 6 6 7 7
16 14 16 12 14 5 5 11 6 8 25 19 16 11 17 22 28 27 26 25 23 23 21 22 20 21 21 20 17 17 15 14 14 15 9 12 13 7 9 8 11 12 11 10 11 11 9 8 8
Wind_Direction
157 174 181 78 264 233 310 126 235 111 89 88 152 154 127 48 148 157 138 156 151 130 134 131 132 125 127 122 120 111 111 108 108 103 97 100 97 97 101 100 106 112 111 108 112 108 101 94 95
173 184 144 263 255 178 270 222 139 111 107 108 103 121 114 82 78 123 129 155 154 131 127 130 130 126 129 127 123 118 115 110 96 91 96 100 100 101 103 108 104 109 111 113 113 112 106 103 104
177 184 285 221 312 221 182 143 133 123 122 132 124 78 78 84 112 144 142 161 135 134 123 135 129 128 131 129 125 121 122 114 107 102 105 101 94 98 100 104 110 104 108 113 111 112 116 115 116
208 183 281 239 264 280 276 168 131 133 124 111 111 82 57 121 139 134 157 161 127 121 126 129 129 131 132 131 126 130 118 117 113 113 111 105 97 100 104 106 104 107 111 115 117 114 115 121 138
251 269 318 295 293 264 256 189 138 124 126 107 96 82 108 158 122 151 155 128 124 122 128 133 134 135 135 134 133 132 122 117 114 116 113 106 105 100 103 105 111 113 116 115 113 113 113 113 137
107 48 7 335 289 305 270 162 143 129 106 102 96 115 121 128 138 164 153 129 118 127 128 134 134 132 132 133 139 134 121 121 120 120 112 109 102 104 100 112 116 116 115 112 112 111 108 112 121
140 96 255 259 267 245 259 134 129 136 126 118 137 114 119 139 154 166 138 132 131 131 128 131 134 139 140 139 149 131 135 134 135 129 119 108 104 112 120 120 124 124 121 115 114 113 98 108 125
203 145 226 265 340 102 229 127 130 155 131 127 129 145 153 152 157 155 137 145 146 133 133 138 136 132 136 144 137 137 147 143 147 151 138 139 155 171 159 159 159 140 136 135 141 138 132 129 129
220 108 276 257 343 356 329 105 126 133 134 139 196 138 143 151 155 154 154 152 136 141 141 143 146 151 150 139 152 154 154 164 168 154 124 45 23 335 194 199 190 171 174 140 179 210 163 127 95
226 157 224 241 233 230 313 67 63 121 114 101 111 122 143 158 160 162 162 153 148 150 150 151 159 166 159 158 148 162 176 190 189 103 91 45 351 288 278 166 185 202 201 163 202 262 264 152 192
243 214 207 243 264 252 300 109 29 137 129 142 140 148 149 161 168 167 167 148 157 158 157 159 168 170 173 147 167 184 183 199 152 150 172 113 58 82 11 349 4 241 226 234 183 242 208 212 208
235 232 183 207 219 123 213 101 336 253 151 144 143 150 155 164 168 177 165 161 169 168 164 166 171 170 168 160 178 183 183 189 158 169 118 119 113 121 209 211 164 323 247 223 231 255 254 234 221
233 242 208 212 140 147 158 184 218 134 136 142 144 154 160 168 176 173 160 173 178 180 171 170 170 160 158 168 191 180 198 181 171 173 156 165 170 185 251 207 126 295 227 203 209 228 172 102 354
246 245 231 183 128 133 212 241 73 143 140 146 152 158 164 174 175 171 178 182 183 191 171 165 171 160 161 171 169 195 187 159 164 171 177 166 158 162 192 219 243 206 206 210 171 163 145 213 51
255 264 268 184 140 165 198 256 98 305 140 149 157 164 169 177 180 178 185 188 178 187 160 161 167 152 144 146 131 94 134 145 152 154 157 153 151 125 161 185 199 212 206 233 129 102 38 55 334
252 253 256 238 166 193 154 178 145 153 159 154 157 173 177 180 183 181 185 194 192 186 153 158 166 153 147 145 146 196 177 140 158 147 164 161 142 133 156 141 201 36 240 209 140 154 196 37 358
252 244 241 242 210 217 179 133 167 152 140 102 189 178 185 180 186 190 190 193 190 183 156 159 163 161 153 152 150 193 238 255 207 159 176 165 157 159 152 149 224 141 252 175 164 177 140 178 287
229 232 245 242 234 200 190 161 169 168 143 134 290 239 188 183 189 189 191 192 188 169 158 165 160 163 160 155 142 180 221 257 217 203 170 163 171 170 155 175 200 206 133 198 289 121 149 195 224
233 246 231 244 233 229 208 138 169 169 158 166 183 279 222 200 188 190 191 189 174 166 162 169 150 163 161 162 168 167 200 218 216 204 161 166 171 176 158 165 175 212 149 188 201 150 101 350 196
230 238 244 234 241 228 186 160 167 168 178 145 118 334 297 191 197 182 176 177 171 166 170 158 155 164 169 168 175 163 179 192 187 204 170 179 172 174 162 165 196 207 162 169 181 133 107 212 166
230 233 243 242 232 239 198 153 161 179 126 131 134 179 260 240 193 185 180 175 171 168 171 170 164 163 169 167 162 161 169 193 178 206 213 188 179 179 170 186 179 181 169 191 199 187 166 160 21
221 234 247 251 257 236 188 208 192 173 168 172 154 182 209 216 199 185 187 176 176 174 170 173 164 162 172 164 174 187 198 192 193 186 194 194 184 185 184 182 180 173 184 188 197 181 188 126 159
227 221 240 251 260 274 272 196 191 170 189 181 194 203 204 203 204 185 186 181 177 170 173 173 173 169 170 181 181 181 190 177 180 176 189 192 199 191 184 178 181 188 178 184 191 197 173 146 143
218 224 242 246 250 255 250 207 218 169 187 201 204 201 202 197 196 186 183 178 174 173 171 173 176 178 176 180 177 192 186 183 186 200 188 196 189 198 184 185 176 182 181 194 201 182 176 171 141
208 210 227 233 227 236 243 249 212 189 185 191 199 202 199 203 181 179 179 182 175 173 176 173 178 182 179 188 197 182 190 183 192 201 200 187 178 191 194 179 181 183 187 191 187 175 186 184 168
206 211 191 200 224 235 253 256 253 245 229 208 181 182 188 181 179 179 180 180 182 177 175 176 179 184 185 185 195 201 198 201 205 192 186 203 189 185 193 194 179 188 186 187 188 184 186 181 194
205 221 211 211 231 145 219 270 278 265 270 187 199 175 178 177 177 178 179 180 182 177 178 179 180 186 189 191 191 198 202 204 204 208 198 200 207 185 191 196 186 186 187 191 188 196 194 177 186
187 159 208 210 199 225 225 224 235 236 243 224 209 189 173 178 177 176 178 179 180 182 179 179 180 186 189 193 193 196 202 206 204 198 204 208 218 220 178 196 194 184 188 195 192 200 184 189 187
195 190 202 163 181 187 219 238 231 221 221 216 209 185 182 174 174 175 176 179 179 183 176 180 177 182 186 187 196 199 202 203 206 197 204 210 205 212 185 174 182 192 189 185 190 195 190 186 186
211 212 197 201 226 226 202 251 315 225 206 204 204 181 176 165 173 174 173 178 177 179 178 181 179 182 187 192 191 201 200 199 200 210 202 205 215 205 196 184 185 185 189 188 193 200 205 196 191